Location: Newark
(51.8833°N, 3.4333°W)
Time: 02:41:24
(UTC+00:00)

Envisat - Visible Passes

Search period start: 01 October 2020 00:00
Search period end: 11 October 2020 00:00
Orbit: 764 x 766 km, 98.1° (Epoch: 30 September)

Date Brightness Start Highest point End Pass type
(mag) Time Alt. Az. Time Alt. Az. Time Alt. Az.
01 Oct 6.4 04:48:14 10° ENE 04:50:22 12° E 04:52:30 10° ESE visible
02 Oct 6.2 18:50:05 10° SW 18:53:14 16° W 18:56:24 10° NW visible
03 Oct 6.0 05:12:26 10° NE 05:16:11 20° E 05:19:55 10° SE visible
03 Oct 5.3 18:11:31 10° SSW 18:16:01 31° W 18:20:33 10° NNW visible
05 Oct 5.2 05:37:20 10° NNE 05:41:53 32° E 05:46:24 10° SSE visible
05 Oct 6.1 18:38:03 10° SW 18:41:44 20° W 18:45:26 10° NW visible
06 Oct 6.2 05:01:26 10° NE 05:04:40 17° E 05:07:52 10° SE visible
07 Oct 6.5 19:05:30 10° WSW 19:07:32 12° W 19:09:35 10° WNW visible
08 Oct 5.5 05:26:09 10° NE 05:30:25 26° E 05:34:40 10° SSE visible
08 Oct 5.7 18:26:08 10° SW 18:30:14 24° W 18:34:21 10° NW visible
09 Oct 6.4 04:50:38 10° NE 04:53:08 14° E 04:55:37 10° ESE visible
10 Oct 4.6 05:51:14 10° NNE 05:56:03 41° E 06:00:52 10° SSE visible
10 Oct 6.3 18:53:05 10° WSW 18:56:00 15° W 18:58:56 10° NW visible
